Tracking 18852 objects as of 23-Nov-2017
HD Live streaming from Space Station
objects crossing your sky now

FENGYUN 1C DEB

Track FENGYUN 1C DEB now!
10-day predictions


NORAD ID: 31324
Int'l Code: 1999-025BQC
Perigee: 819.3 km
Apogee: 891.4 km
Inclination: 99.2 °
Period: 101.9 minutes
Semi major axis: 7226 km
RCS: 0.0129 m2 (small)
Launch date: May 10, 1999
Source: People's Republic of China (PRC)
Launch site: Taiyaun Space Center, China (TSC)

Note: This is SATELLITE DEBRIS
aabbcc
Your satellite tracking list
Your tracking list is empty




NASA's NSSDC Master Catalog

Two Line Element Set (TLE):
1 31324U 99025BQC 17326.20067257  .00000062  00000-0  57807-4 0  9995
2 31324  99.2485 115.1843 0049889 283.5870  75.9747 14.13265141550171
Source of the keplerian elements: AFSPC